TimeEST,TemperatureF,Dew PointF,Humidity,Sea Level PressureIn,VisibilityMPH,Wind Direction,Wind SpeedMPH,Gust SpeedMPH,PrecipitationIn,Events,Conditions,WindDirDegrees,DateUTC
12:53 AM,73.9,62.1,66,30.19,10.0,East,13.8,-,N/A,,Scattered Clouds,90,2012-12-03 05:53:00
1:53 AM,73.0,61.0,66,30.19,10.0,East,12.7,-,N/A,,Partly Cloudy,90,2012-12-03 06:53:00
2:53 AM,73.0,61.0,66,30.18,10.0,East,10.4,-,N/A,,Scattered Clouds,80,2012-12-03 07:53:00
3:53 AM,73.0,62.1,68,30.17,10.0,East,9.2,-,N/A,,Scattered Clouds,80,2012-12-03 08:53:00
4:53 AM,72.0,60.1,66,30.18,10.0,East,8.1,-,N/A,,Scattered Clouds,80,2012-12-03 09:53:00
5:53 AM,73.0,59.0,61,30.19,10.0,ENE,9.2,-,N/A,,Partly Cloudy,70,2012-12-03 10:53:00
6:53 AM,72.0,59.0,64,30.21,10.0,East,9.2,-,N/A,,Scattered Clouds,80,2012-12-03 11:53:00
7:53 AM,73.0,61.0,66,30.22,10.0,East,10.4,-,N/A,,Scattered Clouds,80,2012-12-03 12:53:00
8:53 AM,75.9,61.0,60,30.23,10.0,East,15.0,-,N/A,,Mostly Cloudy,90,2012-12-03 13:53:00
9:53 AM,77.0,60.1,56,30.25,10.0,East,13.8,-,N/A,,Scattered Clouds,90,2012-12-03 14:53:00
10:53 AM,78.1,60.1,54,30.24,10.0,ENE,15.0,-,N/A,,Scattered Clouds,70,2012-12-03 15:53:00
11:53 AM,78.1,59.0,52,30.22,10.0,ENE,12.7,-,N/A,,Scattered Clouds,60,2012-12-03 16:53:00
12:53 PM,78.1,57.0,48,30.19,10.0,NE,12.7,-,N/A,,Scattered Clouds,50,2012-12-03 17:53:00
1:53 PM,78.1,55.9,46,30.18,10.0,ENE,12.7,23.0,N/A,,Scattered Clouds,70,2012-12-03 18:53:00
2:53 PM,77.0,55.0,47,30.18,10.0,NE,11.5,-,N/A,,Scattered Clouds,50,2012-12-03 19:53:00
3:53 PM,75.9,54.0,46,30.18,10.0,NE,10.4,19.6,N/A,,Scattered Clouds,50,2012-12-03 20:53:00
4:53 PM,75.0,53.1,46,30.18,10.0,ENE,10.4,-,N/A,,Partly Cloudy,70,2012-12-03 21:53:00
5:53 PM,73.9,54.0,50,30.19,10.0,ENE,10.4,-,N/A,,Partly Cloudy,70,2012-12-03 22:53:00
6:53 PM,73.0,50.0,44,30.21,10.0,East,9.2,-,N/A,,Partly Cloudy,90,2012-12-03 23:53:00
7:53 PM,73.0,53.1,49,30.21,10.0,East,12.7,-,N/A,,Partly Cloudy,100,2012-12-04 00:53:00
8:53 PM,73.0,57.0,57,30.21,10.0,East,10.4,-,N/A,,Partly Cloudy,80,2012-12-04 01:53:00
9:53 PM,73.0,59.0,61,30.21,10.0,East,11.5,-,N/A,,Scattered Clouds,100,2012-12-04 02:53:00
10:53 PM,73.0,57.9,59,30.21,10.0,East,17.3,-,N/A,,Scattered Clouds,90,2012-12-04 03:53:00
11:53 PM,73.0,55.9,55,30.20,10.0,East,16.1,-,N/A,,Scattered Clouds,90,2012-12-04 04:53:00